Flag for Germany Weather past 2 weeks in Titisee-Neustadt, Baden-Württemberg, Germany

Now
39 °F

Light rain. Overcast.


Feels Like: 36 °F
Forecast: 22 / 28 °F
Wind: 5 mph from West

Location: Freiburg

Current Time: Dec 26, 2014 at 1:15:40 PM

Latest Report: Dec 26, 2014 at 12:00 PM


Visibility: 11 mi

Pressure: 30.47 "Hg

Humidity: 85%

Dew point: 35 °F

Location of Titisee-NeustadtLocation

Historic Weather in Titisee-Neustadt — Graph

°F

Titisee-Neustadt temperature yesterday

Maximum temperature yesterday: 49 °F (at 12:00 AM)
Minimum temperature yesterday: 38 °F (at 11:00 PM)
Average temperature yesterday: 44 °F

Past Weeks' High & Low Weather Summary

 TemperatureHumidityPressure
High56 °F (Dec 13, 1:00 PM)99% (Dec 16, 5:00 AM)30.59 "Hg (Dec 16, 5:00 AM)
Low33 °F (Dec 23, 8:00 PM)32% (Dec 23, 3:00 PM)29.82 "Hg (Dec 12, 6:00 PM)
Average47 °F75%30.19 "Hg
* Reported Dec 11 12:00 Noon — Dec 26 12:00 Noon, Titisee-Neustadt, Weather by CustomWeather, © 2014

Note: Actual official high and low records may vary slightly from our data, if they occured in-between our weather recording intervals... More about our weather records

Advertising

Titisee-Neustadt weather history for previous 24 hours

 ConditionsComfort  
Time TempWeatherWind HumidityBarometerVisibility
12:00 PM
Dec 26
39 °FLight rain. Overcast.5 mph85%30.47 "Hg11 mi
11:00 AM39 °FLight rain. Overcast.3 mph85%30.48 "Hg11 mi
9:00 AM38 °FOvercast.3 mph87%30.47 "Hg14 mi
8:00 AM37 °FOvercast.5 mph87%30.46 "Hg14 mi
6:00 AM35 °FOvercast.2 mph97%30.46 "Hg8 mi
5:00 AM36 °FOvercast.2 mph96%30.46 "Hg10 mi
4:00 AMN/APassing clouds.3 mphN/AN/A2 mi
3:00 AM35 °FLight rain. Overcast.2 mph97%30.47 "Hg4 mi
2:00 AM36 °FLight rain. Overcast.1 mph94%30.47 "Hg8 mi
1:00 AMN/APassing clouds.23 mphN/AN/A2 mi
12:00 AM36 °FPassing clouds.2 mph89%30.46 "Hg22 mi
11:00 PM
Dec 25
38 °FOvercast.5 mph88%30.45 "Hg25 mi
9:00 PM40 °FOvercast.1 mph84%30.44 "Hg19 mi
8:00 PM40 °FOvercast.3 mph81%30.43 "Hg25 mi
6:00 PM42 °FOvercast.3 mph76%30.41 "Hg28 mi
5:00 PM42 °FOvercast.3 mph72%30.39 "Hg31 mi
3:00 PM44 °FPartly sunny.2 mph65%30.38 "Hg43 mi
2:00 PM44 °FOvercast.3 mph58%30.38 "Hg43 mi
1:00 PM45 °FOvercast.2 mph60%30.39 "Hg43 mi
Weather by CustomWeather, © 2014

See weather overviewHow to use our weather pages